Flag for Germany Weather past 2 weeks in Freiburg, Baden-Württemberg, Germany

Now
44 °F

Passing clouds.


Feels Like: 27 °F
Forecast: 34 / 45 °F
Wind: 102 mph from East

Location: Freiburg

Current Time: Dec 21, 2014 at 5:42:08 PM

Latest Report: Dec 21, 2014 at 5:00 PM


Visibility: 2 mi

Pressure: 30.55 "Hg

Humidity: 72%

Dew point: 35 °F

Location of FreiburgLocation

Historic Weather in Freiburg — Graph

°F

Freiburg temperature yesterday

Maximum temperature yesterday: 50 °F (at 12:00 AM)
Minimum temperature yesterday: 41 °F (at 9:00 AM)
Average temperature yesterday: 45 °F

Past Weeks' High & Low Weather Summary

 TemperatureHumidityPressure
High56 °F (Dec 13, 1:00 PM)99% (Dec 16, 5:00 AM)30.59 "Hg (Dec 16, 5:00 AM)
Low30 °F (Dec 10, 4:00 AM)51% (Dec 12, 11:00 PM)29.82 "Hg (Dec 12, 6:00 PM)
Average45 °F81%30.15 "Hg
* Reported Dec 6 3:00 PM — Dec 21 3:00 PM, Freiburg, Weather by CustomWeather, © 2014

Note: Actual official high and low records may vary slightly from our data, if they occured in-between our weather recording intervals... More about our weather records

Advertising

Freiburg weather history for previous 24 hours

 ConditionsComfort  
Time TempWeatherWind HumidityBarometerVisibility
3:00 PM
Dec 21
45 °FPartly sunny.6 mph72%30.55 "Hg34 mi
2:00 PM45 °FOvercast.6 mph72%30.57 "Hg34 mi
12:00 PM44 °FScattered clouds.5 mph73%30.59 "Hg28 mi
11:00 AM44 °FPartly sunny.6 mph76%30.59 "Hg22 mi
9:00 AM41 °FPartly sunny.5 mph84%30.59 "Hg37 mi
8:00 AM41 °FOvercast.5 mph83%30.58 "Hg43 mi
6:00 AM42 °FOvercast.5 mph81%30.57 "Hg43 mi
5:00 AM42 °FOvercast.5 mph83%30.58 "Hg40 mi
3:00 AM41 °FOvercast.6 mph85%30.56 "Hg31 mi
2:00 AM41 °FLow clouds.7 mph87%30.54 "Hg28 mi
12:00 AM41 °FDrizzle. Overcast.7 mph86%30.52 "Hg16 mi
11:00 PM
Dec 20
42 °FLight rain. Overcast.7 mph81%30.50 "Hg25 mi
9:00 PM43 °FOvercast.9 mph73%30.47 "Hg34 mi
8:00 PM43 °FOvercast.10 mph69%30.44 "Hg34 mi
6:00 PM43 °FOvercast.10 mph68%30.40 "Hg34 mi
5:00 PM44 °FOvercast.8 mph67%30.39 "Hg34 mi
Weather by CustomWeather, © 2014

See weather overviewHow to use our weather pages